[[{"header":{"parameterUnit":"m.s-1","parameterCategory":1,"la1":30.2991,"la2":30.254,"lo1":-89.0895,"lo2":-89.0444,"dy":0.0017,"dx":0.0017,"nx":28,"ny":28,"refTime":"2026-01-10T09:00:00:Z","depth":0,"parameterNumber":2,"parameterNumberName":"U-component_of_WINDS"},"data":[0,0,0,0,0,0,0,0,0,0,0,0,0,0,0,0,0,0,0,0,0,0,0,0,0,0,0,0,0,0,0,0,0,0,0,0,0,0,0,0,0,0,0,0,0,0,0,0,0,0,0,0,0,0,0,0,0,0,1.5114,1.5114,0,1.5107,1.5107,1.5107,1.5093,1.5093,1.5092,1.5092,1.5086,1.5086,1.5086,0,0,0,0,0,0,0,0,0,0,0,0,0,1.5118,1.5118,1.5114,1.5114,1.5114,1.5107,1.5107,1.5107,1.5093,1.5093,1.5092,1.5092,1.5086,1.5086,1.5086,0,0,0,0,0,0,0,0,0,0,0,0,0,1.5114,1.5118,1.5114,1.5106,1.5105,1.5107,1.5107,1.5107,1.5093,1.5093,1.5092,1.5092,1.5086,1.5086,1.5086,1.5096,0,0,1.5087,1.5087,0,0,0,0,0,0,0,0,1.5115,1.5114,1.5108,1.5107,1.5106,1.51,1.5106,1.5103,1.5093,1.5098,1.5092,1.5092,1.5091,1.5091,1.5091,1.5096,1.5095,1.5087,1.5087,1.5087,1.5087,0,0,0,0,0,0,0,1.5115,1.5115,1.5111,1.5107,1.5106,1.5104,1.5103,1.5106,1.5097,1.5097,1.5096,1.5096,1.5091,1.5091,1.509,1.5095,1.5087,1.5087,1.5087,1.5087,1.511,1.5111,0,0,0,0,0,0,1.5116,1.5115,1.5112,1.5111,1.5109,1.5104,1.5103,1.5103,1.5097,1.5096,1.5096,1.5095,1.5091,1.509,1.509,1.5102,1.5087,1.5087,1.5087,1.511,1.5111,1.5111,0,0,0,0,0,0,1.5116,1.5116,1.5112,1.5113,1.5112,1.5105,1.5104,1.5103,1.5102,1.5096,1.5095,1.5097,1.509,1.509,1.5095,1.5102,1.5087,1.5087,1.5109,1.511,1.5111,1.5126,0,0,0,0,0,0,1.5116,1.5116,1.5119,1.5113,1.5112,1.5116,1.5105,1.5103,1.5103,1.5101,1.5097,1.5095,1.509,1.5095,1.5095,1.5102,1.5088,1.5109,1.511,1.5111,1.5125,1.5127,1.5129,0,0,0,0,0,1.5117,1.5123,1.5119,1.5119,1.5115,1.5116,1.5116,1.5109,1.5103,1.5106,1.5103,1.5096,1.5101,1.5096,1.5096,1.5103,1.5108,1.5109,1.511,1.5124,1.5127,1.5129,0,0,0,0,0,0,1.513,1.5122,1.5117,1.5122,1.512,1.5114,1.5118,1.5112,1.5112,1.511,1.5102,1.5102,1.5108,1.5106,1.51,1.5113,1.5104,1.5105,1.5114,1.5117,1.5119,1.5119,1.5088,0,0,0,0,0,1.5133,1.5134,1.5128,1.5132,1.5132,1.5125,1.5125,1.512,1.5118,1.5117,1.5114,1.5112,1.5114,1.5115,1.5116,1.5125,1.5125,1.513,1.5132,1.5134,1.5135,1.5142,1.5145,1.5115,1.5115,1.5115,0,0,1.514,1.5136,1.5137,1.5135,1.5133,1.5135,1.5124,1.5126,1.5129,1.5117,1.5122,1.512,1.5118,1.5126,1.5129,1.5124,1.5144,1.5136,1.5137,1.5137,1.5144,1.5147,1.5149,1.5116,1.5116,1.5115,0,0,1.5154,1.515,1.5155,1.5153,1.515,1.5146,1.5148,1.5143,1.5141,1.5146,1.5138,1.5141,1.5144,1.5144,1.5144,1.5161,1.5155,1.5161,1.5173,1.518,1.5182,1.5184,1.5192,1.5194,1.5163,1.5163,1.5163,0,1.5163,1.5165,1.5158,1.5161,1.5161,1.5152,1.5157,1.5156,1.5154,1.5155,1.515,1.5155,1.5153,1.5161,1.5165,1.5165,1.5168,1.5162,1.5182,1.5184,1.5186,1.5193,1.5196,1.5164,1.5163,1.5163,1.5163,0,1.5177,1.5179,1.5183,1.5182,1.5183,1.5187,1.5182,1.5183,1.5179,1.5176,1.5183,1.518,1.5182,1.5183,1.5179,1.5192,1.519,1.5183,1.5174,1.519,1.5197,1.5199,1.5165,1.5164,1.5164,1.5164,0,0,1.5197,1.5193,1.5195,1.5195,1.5193,1.5195,1.52,1.5201,1.5204,1.5203,1.5208,1.5212,1.5207,1.5208,1.5203,1.5209,1.5225,1.5203,1.5203,1.5208,1.5242,1.5247,1.5251,1.5222,1.5222,1.5222,1.5243,0,1.5211,1.5219,1.5213,1.5222,1.5225,1.5218,1.5223,1.5222,1.522,1.5224,1.5222,1.5225,1.5217,1.5218,1.5224,1.5222,1.5232,1.522,1.5228,1.5228,1.5229,1.5254,1.5259,1.5278,1.5245,1.5246,1.5246,0,1.5228,1.5229,1.5238,1.5237,1.5238,1.5242,1.5244,1.5247,1.5248,1.5246,1.5248,1.5243,1.525,1.5241,1.5251,1.5244,1.5247,1.5247,1.5248,1.5248,1.5238,1.5256,1.5283,1.5287,1.525,1.5249,1.5249,0,1.5243,1.5247,1.5253,1.5253,1.5252,1.5256,1.5255,1.5255,1.5258,1.526,1.5262,1.5265,1.5267,1.5271,1.5268,1.5262,1.528,1.527,1.528,1.528,1.5284,1.5284,1.5313,1.5285,1.5285,1.5285,1.5285,0,1.5259,1.5265,1.526,1.5264,1.5272,1.5267,1.5275,1.5274,1.5275,1.528,1.5274,1.5279,1.5275,1.528,1.5278,1.5289,1.5289,1.529,1.5289,1.529,1.5291,1.5292,1.5291,1.5286,1.5286,1.5285,1.5285,0,1.5277,1.5274,1.5281,1.5279,1.528,1.5285,1.5285,1.529,1.5288,1.5295,1.5296,1.5294,1.5301,1.5299,1.5305,1.5304,1.5318,1.5315,1.5317,1.5317,1.5328,1.5327,1.536,1.5365,1.5332,1.5333,1.5333,0,1.5288,1.5292,1.5292,1.5295,1.5295,1.53,1.5303,1.5299,1.5302,1.5305,1.5309,1.5315,1.532,1.5331,1.5331,1.5337,1.5335,1.5346,1.5336,1.5338,1.5337,1.5337,1.5339,1.5348,1.5348,1.5349,1.5349,0,1.5307,1.5306,1.5309,1.5313,1.5316,1.5319,1.5321,1.5325,1.5321,1.5325,1.5332,1.5335,1.5343,1.535,1.5356,1.5357,1.5354,1.5352,1.5355,1.5357,1.5359,1.536,1.5324,1.5352,1.5351,1.5351,1.5351,1.5351,1.5323,1.5327,1.5329,1.5334,1.5335,1.5338,1.5343,1.5343,1.5348,1.5354,1.5352,1.536,1.5363,1.5371,1.5373,1.5381,1.5377,1.5381,1.5382,1.5383,1.5385,1.5357,1.5382,1.5382,1.5382,1.5382,1.5382,0,1.5343,1.5344,1.5349,1.5352,1.5357,1.5353,1.5356,1.536,1.5367,1.5371,1.5376,1.5385,1.5392,1.5394,1.5401,1.5407,1.5406,1.5409,1.5409,1.541,1.5387,1.5385,1.5411,1.5411,1.5411,1.5411,1.5411,1.5411,1.5354,1.5363,1.5362,1.5373,1.5374,1.5381,1.5384,1.5388,1.539,1.5401,1.5407,1.5408,1.5411,1.5419,1.5427,1.5427,1.5431,1.5436,1.5436,1.5414,1.5411,1.5409,1.5406,1.5436,1.5436,1.5458,1.5458,1.5458]},{"header":{"parameterUnit":"m.s-1","parameterCategory":1,"la1":30.2991,"la2":30.254,"lo1":-89.0895,"lo2":-89.0444,"dy":0.0017,"dx":0.0017,"nx":28,"ny":28,"refTime":"2026-01-10T09:00:00:Z","depth":0,"parameterNumber":3,"parameterNumberName":"V-component_of_WINDS"},"data":[0,0,0,0,0,0,0,0,0,0,0,0,0,0,0,0,0,0,0,0,0,0,0,0,0,0,0,0,0,0,0,0,0,0,0,0,0,0,0,0,0,0,0,0,0,0,0,0,0,0,0,0,0,0,0,0,0,0,-7.3388,-7.3391,0,-7.3672,-7.3675,-7.3678,-7.3695,-7.3692,-7.3689,-7.3686,-7.3969,-7.3979,-7.399,0,0,0,0,0,0,0,0,0,0,0,0,0,-7.2856,-7.2866,-7.3388,-7.3391,-7.3395,-7.3671,-7.3675,-7.3679,-7.3696,-7.3692,-7.3688,-7.3684,-7.3966,-7.3978,-7.3991,0,0,0,0,0,0,0,0,0,0,0,0,0,-7.3108,-7.2869,-7.3387,-7.3437,-7.3444,-7.3671,-7.3675,-7.368,-7.3697,-7.3692,-7.3687,-7.3682,-7.3962,-7.3977,-7.3993,-7.4187,0,0,-7.4041,-7.4048,0,0,0,0,0,0,0,0,-7.3094,-7.3128,-7.3426,-7.3434,-7.3442,-7.3643,-7.3592,-7.385,-7.3698,-7.36,-7.3686,-7.368,-7.3864,-7.3888,-7.3951,-7.42,-7.4212,-7.4042,-7.4052,-7.4059,-7.4063,0,0,0,0,0,0,0,-7.3077,-7.3116,-7.35,-7.343,-7.344,-7.3444,-7.3474,-7.3641,-7.3756,-7.3609,-7.3611,-7.3644,-7.3868,-7.3936,-7.3958,-7.4216,-7.4042,-7.4056,-7.4066,-7.4072,-7.4642,-7.4648,0,0,0,0,0,0,-7.305,-7.3101,-7.3491,-7.3509,-7.3253,-7.3457,-7.3491,-7.3584,-7.3754,-7.3775,-7.3648,-7.3644,-7.3911,-7.394,-7.3968,-7.421,-7.4058,-7.4073,-7.4082,-7.4637,-7.4644,-7.465,0,0,0,0,0,0,-7.3039,-7.3085,-7.348,-7.3306,-7.3356,-7.3472,-7.3575,-7.3592,-7.366,-7.3784,-7.3804,-7.3697,-7.3909,-7.3946,-7.4134,-7.4219,-7.408,-7.4095,-7.463,-7.4639,-7.4647,-7.4692,0,0,0,0,0,0,-7.3023,-7.3081,-7.3156,-7.3307,-7.3365,-7.3642,-7.358,-7.3601,-7.3688,-7.3686,-7.3835,-7.3855,-7.3908,-7.411,-7.4149,-7.4239,-7.4107,-7.4623,-7.4634,-7.4644,-7.4683,-7.4701,-7.4716,0,0,0,0,0,-7.3004,-7.3155,-7.316,-7.3207,-7.3463,-7.3647,-7.368,-7.3739,-7.3695,-7.3772,-7.3852,-7.3851,-7.4204,-7.4129,-7.4174,-7.4269,-7.4618,-7.4631,-7.4643,-7.4676,-7.4697,-7.4716,0,0,0,0,0,0,-7.3007,-7.3176,-7.3183,-7.3387,-7.3503,-7.3649,-7.3747,-7.3759,-7.3888,-7.388,-7.3946,-7.3979,-7.4166,-7.4236,-7.415,-7.4468,-7.4406,-7.4428,-7.4415,-7.4437,-7.4453,-7.4432,-7.412,0,0,0,0,0,-7.3032,-7.317,-7.3308,-7.3475,-7.3534,-7.3631,-7.3713,-7.375,-7.3871,-7.3919,-7.4013,-7.4129,-7.4267,-7.4355,-7.4488,-7.4694,-7.4727,-7.4781,-7.4797,-7.481,-7.4829,-7.4945,-7.4972,-7.4692,-7.4692,-7.4691,0,0,-7.3084,-7.3193,-7.3275,-7.3479,-7.3573,-7.3713,-7.3671,-7.382,-7.3925,-7.3941,-7.4126,-7.4198,-7.4332,-7.4531,-7.4623,-7.4595,-7.4914,-7.4827,-7.4836,-7.4848,-7.4961,-7.4987,-7.5011,-7.47,-7.4699,-7.4697,0,0,-7.3251,-7.3347,-7.3498,-7.3595,-7.3739,-7.3804,-7.384,-7.3986,-7.4037,-7.4224,-7.424,-7.4364,-7.4598,-7.4695,-7.4774,-7.4982,-7.4986,-7.5024,-7.5109,-7.5222,-7.5244,-7.5264,-7.5339,-7.5366,-7.5041,-7.5042,-7.5042,0,-7.3296,-7.351,-7.3573,-7.3725,-7.3815,-7.384,-7.3994,-7.4083,-7.4262,-7.4323,-7.429,-7.4589,-7.468,-7.4903,-7.4955,-7.5017,-7.5061,-7.5007,-7.5236,-7.5256,-7.5276,-7.5349,-7.5377,-7.5045,-7.5045,-7.5045,-7.5044,0,-7.356,-7.3708,-7.3813,-7.399,-7.4092,-7.4243,-7.4329,-7.4424,-7.4453,-7.452,-7.4712,-7.4823,-7.4981,-7.5037,-7.5064,-7.5265,-7.5243,-7.5222,-7.5161,-7.5305,-7.5375,-7.5403,-7.5051,-7.5049,-7.5048,-7.5047,0,0,-7.3733,-7.3948,-7.3986,-7.4068,-7.4232,-7.4347,-7.4499,-7.4658,-7.4739,-7.4862,-7.4992,-7.5193,-7.5176,-7.5266,-7.5305,-7.5404,-7.5564,-7.5371,-7.5375,-7.5404,-7.5794,-7.581,-7.5841,-7.5568,-7.5574,-7.5578,-7.5784,0,-7.392,-7.4196,-7.426,-7.4496,-7.4635,-7.4663,-7.4797,-7.4911,-7.4979,-7.5106,-7.518,-7.5322,-7.5288,-7.5343,-7.5442,-7.5524,-7.5644,-7.551,-7.5689,-7.5695,-7.5656,-7.5878,-7.5894,-7.6082,-7.5811,-7.5816,-7.5819,0,-7.4173,-7.4307,-7.4559,-7.4708,-7.4769,-7.4888,-7.504,-7.5161,-7.5291,-7.5334,-7.5438,-7.5467,-7.5627,-7.5559,-7.578,-7.5688,-7.5765,-7.5817,-7.5825,-7.5845,-7.5766,-7.5904,-7.6143,-7.6172,-7.5863,-7.5859,-7.5856,0,-7.4277,-7.452,-7.4704,-7.4773,-7.4951,-7.5035,-7.5112,-7.5238,-7.533,-7.5462,-7.5523,-7.567,-7.5751,-7.5864,-7.5932,-7.5876,-7.6149,-7.6086,-7.6189,-7.6187,-7.6245,-7.624,-7.6501,-7.6293,-7.6293,-7.6292,-7.6291,0,-7.4479,-7.4632,-7.4754,-7.4866,-7.5039,-7.5111,-7.528,-7.5357,-7.547,-7.5598,-7.5629,-7.5747,-7.5831,-7.5961,-7.6015,-7.6191,-7.6226,-7.6265,-7.6278,-7.6263,-7.6258,-7.6315,-7.6304,-7.63,-7.6298,-7.6297,-7.6295,0,-7.4624,-7.4711,-7.4913,-7.5067,-7.511,-7.5231,-7.5362,-7.5472,-7.5542,-7.5703,-7.5745,-7.5855,-7.601,-7.609,-7.6281,-7.6318,-7.6517,-7.6521,-7.6474,-7.648,-7.6579,-7.6569,-7.6885,-7.6931,-7.6692,-7.6694,-7.6696,0,-7.4747,-7.4866,-7.5035,-7.5125,-7.5205,-7.5348,-7.5444,-7.552,-7.5618,-7.5779,-7.5869,-7.6027,-7.6157,-7.6403,-7.6499,-7.6646,-7.6655,-7.6756,-7.6677,-7.6659,-7.6658,-7.6651,-7.6664,-7.6769,-7.6772,-7.6773,-7.6775,0,-7.4957,-7.4996,-7.5134,-7.529,-7.5404,-7.5529,-7.5651,-7.5722,-7.5818,-7.5927,-7.6088,-7.6189,-7.6389,-7.6545,-7.67,-7.6778,-7.6793,-7.68,-7.6832,-7.6818,-7.6786,-7.6807,-7.6513,-7.6792,-7.679,-7.6789,-7.6788,-7.6787,-7.5096,-7.5205,-7.5343,-7.5496,-7.5598,-7.5713,-7.5826,-7.5913,-7.6049,-7.622,-7.6256,-7.6427,-7.6556,-7.6768,-7.6851,-7.6984,-7.6963,-7.7008,-7.702,-7.7031,-7.7036,-7.6765,-7.7012,-7.7012,-7.7012,-7.7011,-7.7011,0,-7.531,-7.5401,-7.5542,-7.5716,-7.5837,-7.5845,-7.5982,-7.6082,-7.6234,-7.6355,-7.6485,-7.6671,-7.6823,-7.6932,-7.7087,-7.7174,-7.7184,-7.7212,-7.7206,-7.7224,-7.7046,-7.7003,-7.7201,-7.7201,-7.7201,-7.72,-7.72,-7.72,-7.5435,-7.5621,-7.5677,-7.5914,-7.6003,-7.6174,-7.6252,-7.6359,-7.6456,-7.6665,-7.6793,-7.6865,-7.6982,-7.7146,-7.7286,-7.7314,-7.737,-7.7398,-7.7426,-7.7257,-7.7236,-7.7217,-7.7178,-7.7409,-7.7409,-7.7594,-7.7595,-7.7597]}]]